Simultaneous Nadir Overpasses (SNOs) Predictions

Prediction of SNOs between NPP and TERRA Satellite Orbit:

Table of predicted SNOs for the next 14.0 days since TLE Epoch: 8/18/2012
Index Date (NPP) Time (NPP) Lat,Lon (NPP) SZA (NPP ) Date (TERRA) Time (TERRA) Lat,Lon (TERRA) SZA (TERRA ) Distance(km) Time Diff (sec)
1 08/19/2012 11:28:15 68.80, 5.57 56.18 08/19/2012 11:29:25 68.68, 6.63 56.02 44.92 70
2 08/19/2012 12:18:47 -68.20, 173.68 124.44 08/19/2012 12:19:02 -68.18, 173.66 124.46 1.94 15
3 08/19/2012 13:09:31 68.06, -18.83 55.43 08/19/2012 13:08:29 68.07, -18.83 55.45 1.64 62
4 08/22/2012 03:44:59 68.27, 122.04 56.51 08/22/2012 03:46:02 68.26, 121.99 56.50 2.50 63
5 08/22/2012 04:35:40 -68.15, -70.48 123.60 08/22/2012 04:35:32 -68.16, -70.50 123.59 1.41 8
6 08/22/2012 05:26:17 67.62, 97.47 55.88 08/22/2012 05:25:06 67.65, 96.56 55.92 38.62 71
7 08/24/2012 20:01:54 68.26,-122.18 57.42 08/24/2012 20:02:32 68.27,-122.12 57.42 2.64 38
8 08/24/2012 20:52:35 -68.14, 45.29 122.70 08/24/2012 20:52:03 -68.12, 45.33 122.72 2.61 32
9 08/27/2012 11:28:17 -69.03,-174.74 120.88 08/27/2012 11:29:26 -68.89,-173.13 121.05 65.92 69
10 08/27/2012 12:18:48 68.20, -6.33 58.28 08/27/2012 12:19:03 68.22, -6.31 58.30 2.49 15
11 08/27/2012 13:09:29 -68.07, 161.15 121.84 08/27/2012 13:08:34 -68.07, 161.14 121.84 0.42 55
12 08/30/2012 03:44:58 -68.26, -57.95 120.72 08/30/2012 03:46:07 -68.28, -58.01 120.71 3.42 69
13 08/30/2012 04:35:43 68.18, 109.46
